loading
DOY 205 | 2024-07-23T01:45:18Z

THOR ABLESTAR DEB, 323

Orbit data source: Space-Track

THOR ABLESTAR DEB, 323 is space debris in LEO originally from a launch on Thu, 29 Jun 1961 UTC launched from the Air Force Eastern Test Range (AFETR). Debris objects in space refer to the collection of defunct objects orbiting the Earth. Examples of debris include non-operational satellites, rocket bodies, and fragments generated from explosions, collisions, or faulty payload assembly.

Loading next visibility...
Loading greatness...
THOR ABLESTAR DEB details
NORAD ID323
COSPAR ID
1961-015CZ
Orbit
LEO
Last TLE update11 hours ago
Origin
Flag of USUSAF SSD (US)
ManufacturerUnknown
BusUnknown
MotorUnknown
MassWet unknown, Dry mass unknown
Launch date (UTC)
1961-06-29 (63 years ago)
Launch vehicleUnknown
Launch site
Air Force Eastern Test Range (AFETR)
Object type
Payload
Rocket body
Debris
Radar Cross SectionSmall (<0.1 m²)
Predictive object data (real-time)
Latitude0.08072°
Longitude81.85031°
Altitude813.979 km
Speed7.463 km/s
Apparent Right ascension18h 29m 25s
Apparent Declination-52° 10' 11"
Sunlit
Object is in full shadow
Predictive observer data (real-time)
Local Sidereal Time14:50:01
Azimuth148.931° SSE
Elevation-13.65°
Doppler factor1
Orbital elements
Apogee902.643 km
Perigee779.552 km
Semi-major axis7,219.235 km
Eccentricity0.0085252
Inclination66.8408°
RAAN64.7145°
Arg. of periapsis240.505°
True anomaly119.60407°
Mean anomaly118.752°
Mean motion3.5384 °/min
BSTAR0.00043046
Period101.74 mins
Definitive object data (Epoch: 2024-07-22T14:43:16.843Z)
Latitude0.00006°
Longitude-96.94929°
Altitude874.846 km
Speed7.4 km/s
True Right ascension04h 18m 51s
True Declination0° 00' 00"
Sunlit
Object was in daylight at TLE epoch
TLE from 11 hours ago
0 THOR ABLESTAR DEB
1 00323U 61015CZ  24204.61338939  .00000780  00000-0  43046-3 0  9990
2 00323  66.8408  64.7145 0085252 240.5050 118.7520 14.14877892230142
Epoch: 2024-07-22T14:43Z
No data available

THOR ABLESTAR DEB Visibility forecast

Observer location: 39.9160978°, -105.1181434

THOR ABLESTAR DEB is not visible in the next 10 days
Span
Click to sort rows by Start time (UTC) header in descending order
Start Az.
Max El. time (UTC)
Max El. Az.
Max El.
End time (UTC)
End Az.